Retour au catalogue

COSMOS 2251 DEB

ActifLEO
NORAD 35979·DEBRIS·🇷🇺 Russia

Lancé Jun 16, 1993 depuis Plesetsk Cosmodrome

Loading…

Prochains Passages (prochaines 24 heures)

TLE

PériméSource: Space-Track

Époque: Sep 4, 2026, 19:03 UTC

1 35979U 93036AVV 26247.79389509  .00002474  00000-0  34489-3 0  9993
2 35979  74.0067  76.6320 0057887 143.8202 228.3035 14.77161061925595

Suivez COSMOS 2251 DEB en temps réel avec AllMySat

Download on the App Store